Total_Precipitation_Accumulation
1.84 2.21 2.49 3.07 3.67 4.01 4.40 4.53 4.48 4.32 4.05 3.62 3.26 3.00 2.75 2.59 2.35 2.18 2.08 1.97 1.89 1.98 2.26 2.14 2.21 2.19 2.18 2.18 2.22 2.24 2.09 1.76 1.95 2.03 1.61 1.20 0.94 0.89 0.67 0.61 0.62 0.63 0.61
1.76 2.24 2.48 2.69 3.18 3.69 4.13 4.40 4.51 4.34 3.94 3.48 3.19 3.01 2.93 2.59 2.28 2.22 2.20 2.02 2.05 2.05 2.06 2.12 2.08 2.08 2.14 2.06 2.03 2.11 1.92 1.59 1.71 1.84 1.83 1.35 1.07 0.83 0.60 0.65 0.71 0.77 0.81
2.03 2.26 2.39 2.52 2.77 3.20 3.49 3.59 3.72 3.66 3.44 3.40 3.29 3.12 3.06 2.68 2.50 2.48 2.44 2.26 2.24 2.18 2.15 2.09 1.97 1.84 1.73 1.70 1.76 1.83 1.80 1.62 1.55 1.71 1.92 1.58 1.19 1.02 0.76 0.71 0.74 0.87 0.97
1.67 1.76 2.03 2.31 2.52 2.75 3.07 3.30 3.33 3.25 3.12 3.14 3.05 2.85 2.61 2.47 2.52 2.71 2.65 2.39 2.17 1.98 1.77 1.64 1.64 1.61 1.55 1.51 1.38 1.44 1.51 1.43 1.32 1.43 1.53 1.59 1.58 1.49 1.04 0.75 0.69 0.82 0.90
1.40 1.47 1.66 1.95 2.06 2.35 2.61 2.88 3.12 3.18 3.07 3.04 2.91 2.85 2.67 2.59 2.56 2.48 2.37 2.15 1.92 1.66 1.40 1.31 1.33 1.32 1.30 1.25 1.19 1.22 1.15 1.12 1.12 1.24 1.40 1.49 1.54 1.53 1.43 1.09 0.98 0.96 0.85
1.23 1.39 1.53 1.73 1.82 1.95 2.08 2.21 2.44 2.67 2.75 2.75 2.68 2.60 2.46 2.37 2.26 2.07 1.87 1.67 1.53 1.31 1.10 1.01 1.07 1.13 1.18 1.13 1.07 1.08 1.02 1.05 1.16 1.18 1.26 1.39 1.36 1.37 1.46 1.25 1.13 1.07 0.90
0.95 1.15 1.25 1.34 1.45 1.53 1.58 1.69 1.91 2.20 2.28 2.23 2.22 2.22 2.15 2.07 1.94 1.85 1.69 1.48 1.29 1.06 0.99 0.94 0.99 1.04 1.10 1.01 0.98 0.97 1.01 1.11 1.20 1.18 1.18 1.28 1.30 1.32 1.43 1.40 1.27 1.20 1.10
0.71 0.84 1.02 1.20 1.26 1.27 1.33 1.44 1.69 1.86 1.90 1.81 1.87 1.93 1.89 1.88 1.76 1.78 1.58 1.34 1.19 1.10 1.12 1.04 0.96 0.92 0.94 0.90 0.99 0.94 0.94 1.05 1.13 1.06 1.20 1.26 1.28 1.42 1.54 1.58 1.57 1.43 1.29
0.69 0.72 0.77 0.91 0.97 0.99 1.06 1.16 1.46 1.66 1.71 1.67 1.70 1.74 1.76 1.69 1.54 1.46 1.36 1.18 1.16 1.13 1.24 1.18 1.10 1.02 1.00 1.03 1.10 1.12 1.15 1.27 1.30 1.33 1.45 1.42 1.34 1.37 1.43 1.50 1.57 1.64 1.46
0.49 0.52 0.50 0.55 0.67 0.81 0.96 1.07 1.17 1.35 1.49 1.48 1.47 1.46 1.57 1.51 1.39 1.36 1.23 1.04 0.97 0.99 1.13 1.18 1.14 1.09 1.06 1.10 1.20 1.28 1.43 1.54 1.54 1.57 1.64 1.61 1.50 1.49 1.54 1.53 1.60 1.70 1.60
0.35 0.40 0.45 0.50 0.63 0.74 0.85 0.97 1.02 1.14 1.26 1.29 1.32 1.31 1.28 1.32 1.31 1.21 1.07 1.02 1.00 0.96 0.96 1.02 1.08 1.09 1.10 1.14 1.20 1.24 1.45 1.55 1.53 1.51 1.53 1.48 1.46 1.45 1.40 1.46 1.58 1.70 1.70
0.43 0.43 0.50 0.54 0.64 0.73 0.78 0.81 0.85 0.95 1.09 1.23 1.40 1.46 1.39 1.34 1.25 1.10 1.02 1.02 1.01 0.99 1.00 1.04 1.05 0.98 0.96 1.06 1.10 1.16 1.31 1.38 1.36 1.33 1.34 1.22 1.21 1.24 1.20 1.28 1.34 1.42 1.60
0.50 0.52 0.55 0.50 0.54 0.64 0.72 0.68 0.70 0.82 0.97 1.19 1.51 1.65 1.60 1.47 1.30 1.12 0.99 0.96 0.97 1.00 1.02 1.01 1.02 1.01 1.08 1.17 1.19 1.19 1.18 1.18 1.20 1.30 1.35 1.20 1.15 1.12 1.13 1.15 1.12 1.16 1.33
0.55 0.60 0.56 0.59 0.61 0.59 0.66 0.67 0.71 0.76 0.90 1.08 1.29 1.39 1.29 1.20 1.13 1.00 0.90 0.87 0.89 0.95 0.97 0.99 1.00 1.05 1.14 1.19 1.23 1.23 1.17 1.09 1.04 1.08 1.11 1.09 1.08 1.08 1.18 1.18 1.16 1.17 1.28
0.48 0.49 0.46 0.51 0.56 0.56 0.63 0.60 0.55 0.54 0.65 0.82 0.92 1.01 0.98 0.91 0.88 0.86 0.84 0.83 0.91 0.92 0.99 1.05 1.06 1.04 1.02 0.97 0.96 0.99 0.99 1.03 0.98 0.91 0.90 0.92 1.00 1.02 1.03 0.99 1.11 1.21 1.24
0.31 0.31 0.42 0.48 0.46 0.44 0.46 0.39 0.40 0.47 0.57 0.68 0.77 0.90 0.99 0.97 0.90 0.87 0.88 0.87 0.94 0.97 1.01 1.03 1.10 1.10 0.92 0.99 0.98 0.94 1.02 1.09 1.07 1.04 0.97 0.91 0.89 0.85 0.81 0.79 0.85 0.99 1.10
0.27 0.23 0.29 0.37 0.39 0.40 0.36 0.37 0.42 0.50 0.60 0.71 0.80 0.91 1.03 1.08 1.03 0.94 0.98 0.99 1.04 1.10 1.08 1.07 1.07 1.08 1.11 1.14 1.02 0.88 0.85 0.91 0.97 1.00 1.00 0.86 0.78 0.84 0.81 0.83 0.79 0.79 0.88
0.28 0.22 0.22 0.26 0.32 0.38 0.42 0.47 0.54 0.63 0.70 0.78 0.88 1.03 1.12 1.11 1.10 1.12 1.16 1.19 1.23 1.26 1.24 1.20 1.14 1.17 1.17 1.09 0.92 0.83 0.75 0.79 0.85 0.91 0.96 0.95 0.86 0.83 0.89 0.92 0.89 0.82 0.79
0.29 0.27 0.25 0.30 0.37 0.42 0.44 0.58 0.71 0.83 0.91 0.93 0.98 1.09 1.21 1.24 1.27 1.32 1.33 1.37 1.42 1.37 1.32 1.30 1.33 1.30 1.31 1.26 1.05 0.97 0.90 0.96 1.00 1.02 1.01 0.99 0.91 0.96 0.92 0.91 0.92 0.87 0.82
0.34 0.34 0.33 0.40 0.48 0.56 0.62 0.72 0.82 0.91 1.04 1.10 1.20 1.36 1.51 1.53 1.54 1.63 1.69 1.64 1.57 1.48 1.49 1.47 1.47 1.49 1.54 1.63 1.40 1.25 1.16 1.21 1.20 1.24 1.15 1.05 0.97 0.97 0.91 0.85 0.87 0.83 0.82
0.42 0.40 0.39 0.46 0.60 0.71 0.81 0.93 1.07 1.16 1.13 1.20 1.35 1.57 1.71 1.79 1.84 1.94 1.97 1.94 1.91 1.88 1.82 1.71 1.67 1.68 1.73 1.83 1.62 1.46 1.38 1.42 1.47 1.44 1.31 1.27 1.20 1.04 0.97 0.89 0.88 0.87 0.88
0.51 0.50 0.49 0.60 0.74 0.87 0.93 1.04 1.11 1.13 1.17 1.25 1.39 1.52 1.66 1.71 1.78 1.99 2.06 2.10 2.11 2.05 1.98 1.92 1.78 1.75 1.73 1.65 1.51 1.36 1.30 1.41 1.56 1.62 1.53 1.44 1.32 1.10 1.01 0.91 0.87 0.86 0.80
0.50 0.52 0.56 0.74 0.91 1.02 1.11 1.18 1.13 1.21 1.27 1.34 1.47 1.59 1.68 1.76 1.85 1.89 1.88 1.91 1.97 1.97 1.90 1.91 1.83 1.76 1.74 1.69 1.42 1.21 1.13 1.17 1.28 1.45 1.51 1.39 1.22 1.05 0.92 0.88 0.84 0.76 0.67
0.41 0.45 0.55 0.66 0.78 0.87 0.97 1.11 1.20 1.30 1.37 1.43 1.48 1.56 1.68 1.71 1.74 1.86 1.93 1.98 2.07 2.14 2.05 1.94 1.85 1.79 1.72 1.62 1.43 1.24 1.14 1.18 1.27 1.37 1.43 1.30 1.17 1.02 0.94 0.86 0.78 0.72 0.76
0.42 0.47 0.57 0.64 0.70 0.75 0.83 0.92 1.02 1.15 1.25 1.32 1.38 1.43 1.48 1.56 1.64 1.70 1.77 1.77 1.83 1.81 1.78 1.73 1.71 1.69 1.64 1.49 1.40 1.29 1.18 1.23 1.33 1.39 1.46 1.36 1.31 1.23 1.14 1.07 1.00 0.98 0.99
0.50 0.53 0.57 0.59 0.63 0.68 0.80 0.90 0.99 1.14 1.28 1.37 1.39 1.35 1.34 1.39 1.45 1.50 1.48 1.44 1.36 1.32 1.27 1.27 1.28 1.26 1.21 1.14 1.03 0.99 0.99 1.05 1.19 1.26 1.42 1.49 1.46 1.41 1.33 1.21 1.11 1.06 1.01